Location: Dortmund
(51.5019°N, 7.6520°E)
Time: 07:00:12
(UTC+01:00)

ISS - Pass Details

Date: 06 January 2018
Orbit: 402 x 407 km, 51.6° (Epoch: 18 January)

Event Time Altitude Azimuth Distance (km) Brightness Sun altitude
Exits shadow 05:13:40 14° 82° (E) 1,248 -0.6 -30.0°
Drops below altitude 10° 05:14:13 10° 81° (E) 1,470 -0.1 -29.9°
Sets 05:16:19 0° 79° (ENE) 2,333 1.2 -29.6°
